Change the Weather History Date:

Tuesday, July 22, 2014

  Actual Average Record
Temperature  
Mean Temperature 76 °F -  
Max Temperature 88 °F 85 °F 102 °F (2011)
Min Temperature 66 °F 62 °F 51 °F (1965)
Cooling Degree Days 11    
Growing Degree Days 26 (Base 50)    
Moisture  
Dew Point 65 °F    
Average Humidity 67    
Maximum Humidity 87    
Minimum Humidity 51    
Precipitation  
Precipitation 0.00 in - - ()
Sea Level Pressure  
Sea Level Pressure 30.14 in    
Wind  
Wind Speed 2 mph (SW)    
Max Wind Speed 8 mph    
Max Gust Speed -    
Visibility 10 miles    
Events      
Averages and records for this station are not official NWS values.
T = Trace of Precipitation, MM = Missing Value Source: NWS Daily Summary

Daily Weather History Graph

Daily Weather History Graph

Search for Another Location

Airport or City:

Trip Planner

Search our weather history database for the weather conditions in past years. The results will help you decide how hot, cold, wet, or windy it might be!

Date:

Astronomy

Jul. 22, 2014 Rise Set
Actual Time 5:44 AM EDT 8:22 PM EDT
Civil Twilight 5:12 AM EDT 8:54 PM EDT
Nautical Twilight 4:32 AM EDT 9:33 PM EDT
Astronomical Twilight 3:47 AM EDT 10:18 PM EDT
Moon 2:15 AM EDT (7/22) 4:57 PM EDT (7/22)
Length of Visible Light 15h 41m
Length of Day
14h 38m
Waning Crescent, 16% of the Moon is Illuminated
Jul 22
Waning Crescent
Jul 26
New
Aug 3
First Quarter
Aug 10
Full
Aug 17
Last Quarter

Hourly Weather History & Observations

Time (EDT) Temp. Heat Index Dew Point Humidity Pressure Visibility Wind Dir Wind Speed Gust Speed Precip Events Conditions
12:53 AM 70.0 °F - 64.0 °F 81% 30.19 in 10.0 mi Calm Calm - N/A   Clear
1:53 AM 69.1 °F - 64.0 °F 84% 30.19 in 10.0 mi Calm Calm - N/A   Clear
2:53 AM 69.1 °F - 64.0 °F 84% 30.19 in 10.0 mi Calm Calm - N/A   Clear
3:53 AM 68.0 °F - 64.0 °F 87% 30.18 in 10.0 mi Calm Calm - N/A   Clear
4:53 AM 68.0 °F - 64.0 °F 87% 30.19 in 10.0 mi Calm Calm - N/A   Clear
5:53 AM 66.9 °F - 63.0 °F 87% 30.20 in 10.0 mi Calm Calm - N/A   Clear
6:53 AM 68.0 °F - 63.0 °F 84% 30.20 in 10.0 mi Calm Calm - 0.00 in   Scattered Clouds
7:53 AM 70.0 °F - 64.0 °F 81% 30.20 in 10.0 mi Calm Calm - N/A   Clear
8:53 AM 73.9 °F - 64.9 °F 73% 30.20 in 10.0 mi Calm Calm - N/A   Clear
10:53 AM 81.0 °F 83.8 °F 68.0 °F 65% 30.17 in 10.0 mi West 4.6 mph - N/A   Clear
11:53 AM 82.9 °F 85.0 °F 66.0 °F 56% 30.16 in 10.0 mi Variable 5.8 mph - N/A   Partly Cloudy
12:53 PM 82.9 °F 85.0 °F 66.0 °F 56% 30.15 in 10.0 mi Variable 5.8 mph - N/A   Mostly Cloudy
1:53 PM 84.9 °F 87.1 °F 66.0 °F 53% 30.14 in 10.0 mi Variable 6.9 mph - N/A   Scattered Clouds
2:53 PM 86.0 °F 88.2 °F 66.0 °F 51% 30.12 in 10.0 mi South 8.1 mph - N/A   Clear
4:53 PM 86.0 °F 88.2 °F 66.0 °F 51% 30.09 in 10.0 mi WSW 8.1 mph - N/A   Clear
5:53 PM 86.0 °F 88.2 °F 66.0 °F 51% 30.07 in 10.0 mi Variable 4.6 mph - N/A   Clear
6:53 PM 84.9 °F 87.1 °F 66.0 °F 53% 30.08 in 10.0 mi SW 4.6 mph - N/A   Clear
7:53 PM 84.0 °F 86.3 °F 66.0 °F 55% 30.08 in 10.0 mi SW 3.5 mph - N/A   Clear
8:53 PM 82.0 °F 84.5 °F 66.9 °F 60% 30.07 in 10.0 mi Variable 3.5 mph - N/A   Clear
9:53 PM 81.0 °F 83.0 °F 66.0 °F 60% 30.07 in 10.0 mi Variable 4.6 mph - N/A   Scattered Clouds
10:53 PM 79.0 °F - 64.0 °F 60% 30.07 in 10.0 mi SSW 4.6 mph - N/A   Clear
11:53 PM 77.0 °F - 64.0 °F 64% 30.05 in 10.0 mi Variable 3.5 mph - N/A   Partly Cloudy